This demonstration page uses our WeatherBlox Daily Observations layout. Learn more.

Left ArrowRight Arrow

Hourly Observations for May 7, 2021

Temp ( °F °C ) Dew Point ( °F °C ) Humidity (%) Winds ( mph kmh ) Pressure ( in mb ) Visibility ( mi km ) Precip ( " mm )
12:51 am 00:51 Clear 76 24.4 40 4.4 27 27 NE 3 6 29.81 1009 10 16 N/A
1:51 am 01:51 Clear 76 24.4 44 6.7 32 32 E 6 9 29.79 1009 10 16 N/A
2:51 am 02:51 Clear 71 21.7 35 1.7 27 27 N 8 13 29.80 1009 10 16 N/A
3:51 am 03:51 Clear 67 19.4 31 -0.6 26 26 SSE 5 7 29.81 1010 10 16 N/A
4:51 am 04:51 Clear 64 17.8 32 undefined 30 30 SW 3 6 29.83 1010 10 16 N/A
5:51 am 05:51 Sunny 63 17.2 30 -1.1 29 29 N N/A 29.85 1011 10 16 N/A
6:51 am 06:51 Sunny 70 21.1 38 3.3 31 31 ESE 3 6 29.86 1011 10 16 N/A
7:51 am 07:51 Sunny 75 23.9 39 3.9 27 27 N N/A 29.86 1011 10 16 N/A
8:51 am 08:51 Sunny 80 26.7 38 3.3 22 22 SW 6 9 29.85 1011 10 16 N/A
9:51 am 09:51 Sunny 83 28.3 36 2.2 19 19 VRB 3 6 29.84 1010 10 16 N/A
10:51 am 10:51 Sunny 88 31.1 38 3.3 17 17 VRB 5 7 29.81 1009 10 16 N/A
11:51 am 11:51 Sunny 90 32.2 36 2.2 15 15 VRB 7 11 29.78 1009 10 16 N/A
12:51 pm 12:51 Sunny 93 33.9 30 -1.1 10 10 W 13 20 29.74 1007 10 16 N/A
1:51 pm 13:51 Sunny 94 34.4 25 -3.9 8 8 undefined N/A 29.71 1006 10 16 N/A
2:51 pm 14:51 Sunny 96 35.6 20 -6.7 6 6 NW 9 15 29.67 1005 10 16 N/A
3:51 pm 15:51 Sunny 97 36.1 16 -8.9 5 5 N 5 7 29.65 1004 10 16 N/A
4:51 pm 16:51 Sunny 95 35 12 -11.1 5 5 WNW 20 31 29.65 1004 10 16 N/A
5:51 pm 17:51 Sunny 92 33.3 17 -8.3 6 6 WNW 23 37 29.65 1004 10 16 N/A
6:51 pm 18:51 Sunny 88 31.1 17 -8.3 7 7 WNW 21 33 29.66 1004 10 16 N/A
7:51 pm 19:51 Clear 83 28.3 18 -7.8 9 9 NW 16 26 29.68 1005 10 16 N/A
8:51 pm 20:51 Clear 81 27.2 19 -7.2 10 10 NW 10 17 29.69 1006 10 16 N/A
9:51 pm 21:51 Clear 74 23.3 18 -7.8 12 12 WNW 9 15 29.72 1006 10 16 N/A
10:51 pm 22:51 Clear 72 22.2 18 -7.8 13 13 WNW 9 15 29.72 1006 10 16 N/A
11:51 pm 23:51 Clear 72 22.2 17 -8.3 12 12 NW 9 15 29.71 1006 10 16 N/A

Powered by AerisWeather